This demonstration page uses our WeatherBlox Daily Observations layout. Learn more.

Left ArrowRight Arrow

Hourly Observations for December 2, 2021

Temp ( °F °C ) Dew Point ( °F °C ) Humidity (%) Winds ( mph kmh ) Pressure ( in mb ) Visibility ( mi km ) Precip ( " mm )
12:15 am 00:15 Clear 39 4.1 30 -0.9 70 70 N N/A 30.03 1017 10 16 N/A
12:35 am 00:35 Clear 38 3.4 30 -1.2 72 72 N 7 11 30.03 1017 10 16 N/A
12:55 am 00:55 Clear 39 4.1 31 -0.5 72 72 NNW 9 15 30.03 1017 10 16 N/A
1:15 am 01:15 Clear 40 4.7 32 -0.1 71 71 NW 5 7 30.02 1017 10 16 N/A
1:35 am 01:35 Clear 42 5.4 32 undefined 68 68 WNW 9 15 30.01 1016 10 16 N/A
1:55 am 01:55 Clear 41 5.1 32 undefined 70 70 NW 8 13 30.03 1017 10 16 N/A
2:15 am 02:15 Clear 42 5.3 32 undefined 69 69 WNW 10 17 30.03 1017 10 16 N/A
2:35 am 02:35 Clear 41 5 32 undefined 70 70 WNW 8 13 30.04 1017 10 16 N/A
2:55 am 02:55 Clear 42 5.5 32 undefined 68 68 WNW 10 17 30.03 1017 10 16 N/A
3:15 am 03:15 Clear 43 6 32 undefined 66 66 WNW 12 19 30.03 1017 10 16 N/A
3:35 am 03:35 Clear 45 7 32 undefined 61 61 WNW 10 17 30.02 1017 10 16 N/A
3:50 am 03:50 Clear 44 6.5 32 undefined 64 64 WNW 10 17 30.02 1017 10 16 N/A
4:15 am 04:15 Clear 40 4.6 32 undefined 72 72 WNW 10 17 30.04 1017 10 16 N/A
4:35 am 04:35 Clear 40 4.6 32 -0.1 72 72 NW 8 13 30.04 1017 10 16 N/A
4:55 am 04:55 Clear 38 3.1 31 -0.6 77 77 NW 7 11 30.06 1018 10 16 N/A
5:10 am 05:10 Clear 38 3.4 31 -0.5 76 76 WNW 7 11 30.05 1018 10 16 N/A
5:35 am 05:35 Clear 37 2.5 31 -0.5 81 81 WNW 6 9 30.06 1018 10 16 N/A
5:55 am 05:55 Clear 36 2.4 31 -0.7 80 80 NW 3 6 30.06 1018 10 16 N/A
6:15 am 06:15 Clear 37 2.9 31 -0.6 78 78 W 5 7 30.06 1018 10 16 N/A
6:35 am 06:35 Clear 36 2.4 31 -0.8 80 80 W 9 15 30.06 1018 10 16 N/A
6:55 am 06:55 Clear 36 2.3 31 -0.8 80 80 W 10 17 30.07 1018 10 16 N/A
7:15 am 07:15 Clear 36 2.3 31 -0.6 81 81 W 10 17 30.08 1019 10 16 N/A
7:35 am 07:35 Clear 37 2.5 31 -0.5 81 81 W 9 15 30.09 1019 10 16 N/A
7:55 am 07:55 Sunny 37 2.5 31 -0.6 80 80 W 7 11 30.09 1019 10 16 N/A
8:15 am 08:15 Sunny 37 2.9 31 -0.5 79 79 WNW 7 11 30.10 1019 10 16 N/A
8:35 am 08:35 Sunny 40 4.2 32 undefined 74 74 WNW 7 11 30.08 1018 10 16 N/A
8:55 am 08:55 Sunny 42 5.7 33 0.5 70 70 WNW 7 11 30.07 1018 10 16 N/A
9:15 am 09:15 Sunny 45 7.3 34 1 65 65 WNW 6 9 30.07 1018 10 16 N/A
9:35 am 09:35 Sunny 48 8.7 34 1.3 60 60 WNW 7 11 30.05 1018 10 16 N/A
9:55 am 09:55 Sunny 50 10.1 35 1.5 55 55 WNW 7 11 30.04 1017 10 16 N/A
10:15 am 10:15 Sunny 53 11.5 36 2 52 52 WNW 6 9 30.03 1017 10 16 N/A
10:35 am 10:35 Sunny 56 13.1 36 2 47 47 W 6 9 30.01 1016 10 16 N/A
10:55 am 10:55 Sunny 59 15.2 35 1.9 41 41 WNW 7 11 29.98 1015 10 16 N/A
11:15 am 11:15 Sunny 62 16.6 36 2 38 38 WNW 6 9 29.96 1015 10 16 N/A
11:35 am 11:35 Sunny 63 17.3 36 2 36 36 W 3 6 29.95 1014 10 16 N/A
11:55 am 11:55 Sunny 65 18.1 36 2.1 34 34 N N/A 29.93 1013 10 16 N/A
12:15 pm 12:15 Sunny 68 20 36 2 30 30 NW 6 9 29.90 1013 10 16 N/A
12:35 pm 12:35 Sunny 69 20.5 36 2 29 29 WNW 6 9 29.89 1012 10 16 N/A
12:55 pm 12:55 Sunny 70 20.9 35 1.9 28 28 N N/A 29.87 1012 10 16 N/A
1:15 pm 13:15 Sunny 71 21.5 36 2.4 28 28 N N/A 29.86 1011 10 16 N/A
1:35 pm 13:35 Sunny 72 22 36 2.4 28 28 SE 3 6 29.85 1011 10 16 N/A
1:55 pm 13:55 Sunny 71 21.5 37 2.5 29 29 N N/A 29.83 1010 10 16 N/A
2:15 pm 14:15 Sunny 71 21.6 37 2.6 29 29 ESE 3 6 29.83 1010 10 16 N/A
2:35 pm 14:35 Sunny 72 22.1 37 2.5 28 28 N N/A 29.81 1010 10 16 N/A
2:55 pm 14:55 Sunny 74 23.2 36 2.3 25 25 W 8 13 29.80 1009 10 16 N/A
3:15 pm 15:15 Sunny 73 22.6 36 2 26 26 NW 6 9 29.80 1009 10 16 N/A
3:35 pm 15:35 Sunny 73 22.5 35 1.9 26 26 NW 3 6 29.80 1009 10 16 N/A
3:55 pm 15:55 Sunny 71 21.5 34 1.1 26 26 N N/A 29.80 1009 10 16 N/A
4:15 pm 16:15 Sunny 71 21.4 40 4.4 33 33 N N/A 29.80 1009 10 16 N/A
4:35 pm 16:35 Sunny 70 21.2 37 3 30 30 N N/A 29.80 1009 10 16 N/A
4:55 pm 16:55 Hazy 68 20.1 37 3 32 32 N N/A 29.80 1009 5 8 N/A
5:15 pm 17:15 Clear 66 18.7 36 2.3 34 34 N N/A 29.81 1010 10 16 N/A
5:35 pm 17:35 Clear 63 17.1 36 2.1 37 37 SSW 3 6 29.82 1010 10 16 N/A
5:55 pm 17:55 Clear 59 14.8 34 1.3 40 40 SSW 3 6 29.84 1010 10 16 N/A
6:15 pm 18:15 Clear 57 13.9 34 0.9 41 41 N N/A 29.85 1011 10 16 N/A
6:35 pm 18:35 Hazy 55 13 33 0.7 43 43 N N/A 29.85 1011 5 8 N/A
6:55 pm 18:55 Clear 55 12.7 34 1 45 45 N N/A 29.86 1011 7 11 N/A
7:15 pm 19:15 Clear 47 8.5 33 0.4 57 57 N N/A 29.91 1013 7 11 N/A
7:35 pm 19:35 Clear 45 7.4 33 0.4 61 61 N N/A 29.92 1013 7 11 N/A
7:55 pm 19:55 Clear 46 8 33 0.7 60 60 N N/A 29.91 1013 7 11 N/A
8:15 pm 20:15 Clear 42 5.8 32 undefined 67 67 N N/A 29.93 1014 7 11 N/A
8:35 pm 20:35 Clear 42 5.6 32 0.1 68 68 N N/A 29.93 1014 7 11 N/A
8:55 pm 20:55 Clear 43 6.3 33 0.3 66 66 N N/A 29.92 1013 7 11 N/A
9:15 pm 21:15 Clear 43 6 32 undefined 66 66 SW 3 6 29.92 1013 7 11 N/A
9:35 pm 21:35 Clear 41 5 32 -0.1 70 70 N N/A 29.93 1013 10 16 N/A
9:55 pm 21:55 Clear 43 6.1 31 -0.7 62 62 WNW 6 9 29.92 1013 10 16 N/A
10:15 pm 22:15 Clear 44 6.6 31 -0.8 60 60 WNW 7 11 29.92 1013 10 16 N/A
10:35 pm 22:35 Clear 40 4.7 31 -0.6 69 69 NNW 7 11 29.95 1014 10 16 N/A
10:55 pm 22:55 Clear 41 5.2 31 -0.4 67 67 NW 8 13 29.95 1014 10 16 N/A
11:15 pm 23:15 Clear 42 5.6 31 -0.6 65 65 NW 8 13 29.94 1014 10 16 N/A
11:35 pm 23:35 Clear 44 6.8 32 -0.1 62 62 WNW 9 15 29.93 1014 10 16 N/A
11:55 pm 23:55 Clear 40 4.7 31 -0.5 69 69 W 8 13 29.94 1014 10 16 N/A

Powered by AerisWeather